sat.trackr.live / text

‹ back to catalog

SHARJAHSAT-1

NORAD 55104 · 2023-001CZ

PAYLOAD ACTIVE UNKNOWN

§ Identity

Operator
Country
UAE
Launch date
2023-01-03
Launch site
AFETR
Launch vehicle
Mass (kg)
RCS (m²)

External: N2YO · Heavens-Above · Gunter

§ Orbital elements

Epoch: 2026-05-25T04:10:19.941888Z

Period
93.02 min
Inclination
97.3183°
Eccentricity
0.0006303
Mean motion
15.48097833 rev/d
Perigee alt
418.0 km
Apogee alt
426.6 km
Semi-major
6,800.4 km
B*
3.2921e-4
RAAN
213.6358°
Arg perigee
170.0732°
Mean anomaly
190.0644°
Rev number
18,893

§ Raw data

SHARJAHSAT-11 55104U 23001CZ  26145.17384192  .00017197  00000+0  32921-3 0  99982 55104  97.3183 213.6358 0006303 170.0732 190.0644 15.48097833188939

JSON: /api/v1/satellites/55104 · /tle

For live sub-satellite position, see the globe view (requires WebGL).

§ Visibility from observer

Set your observer location to see the next 7 days of passes ≥ 10°. The values pass through the URL so the page stays shareable.

No JS? Fill the form by hand. The geolocation button needs JavaScript.

§ Radio — SatNOGS DB

ModeDescriptionDownlinkUplink
GMSK Mode U - GMSK9k6 437.325 MHz
CW CW Beacon (inactive) 437.325 MHz
GMSK Mode S - GMSK (inactive) 2.405 GHz

3 transmitters · refreshed weekly from db.satnogs.org